COSMOS 1275 DEB

Satellite information

Favourite Embed

Satellite Type and Status

DEBRISIN ORBIT

Key statistics

Satellite COSMOS 1275 DEB at a glance.

Uptime

16047

Days in orbit

Revolutions

≈ 13.8

Per day

Orbit

LEO

Low Earth Orbit

Inclination

83.0

Latest

Satellite identification and parameters

Extended collection of information and parameters for COSMOS 1275 DEB.

Object identification

Identified? True

Debris? True

Object name: COSMOS 1275 DEB

International designator: 1981-053TK

Object number (NORAD): 42195

Object ID (CCSDS): 42195

Country: COMMONWEALTH OF INDEPENDENT STATES (CIS)

Current information (Y/N): Y

RCS size: SMALL

Orbital parameters

Period: 104.38 minutes

Inclination: 83.0329 deg

SMA: 7343.545 km

Apoapsis: 1040.466 km

Periapsis: 890.354 km

RAAN: 260.4352 deg

Eccentricy: 0.0102207

Argument of periapsis: 93.8178 deg

Mean anomaly: 267.4673 deg

Mean motion: 13.79571288 rev/day

Mean motion (dot): 0.00002163 rev/day2

B* drag term: 0.0020035 1/REarth

Two-line elements (TLE)

Creation date: May 8, 2025, 3:01 a.m.

Reference frame: TEME

Reference center: EARTH

Epoch: Feb. 8, 2025, 8:30 a.m. UTC

TLE line 0: 0 COSMOS 1275 DEB

TLE line 1: 1 42195U 81053TK 25039.35454570 .00002163 00000-0 20035-2 0 9994

TLE line 2: 2 42195 83.0329 260.4352 0102207 93.8178 267.4673 13.79571288536187

Live tracking on map

Real-time ground track for satellite COSMOS 1275 DEB.

In-orbit conjunctions

A list of the most updated potential collisions computed for object COSMOS 1275 DEB.

Target Orbit TCA Probability of collision Miss distance Type
SL-3 R/B LEO 2024-09-19 04:07:48 0.001319187 43.0 (m) ROCKET BODY

Associated space launch

Navigation satellite providing location information for the Tsiklon-B navigation system

COSMOS 1275 DEB was lifted into orbit during the mission ‘Kosmos-3M | Parus 27’, on board a Kosmos-3M space rocket.

The launch took place on June 4, 1981, 3:41 p.m. from 132/2.

For more information about the launch, click the button.

Launch to space Kosmos-3M | Parus 27
Kosmos-3M | Parus 27

Agency: N/A

Status: Launch Successful

Launch date: June 4, 1981, 3:41 p.m. UTC

Rocket: Kosmos-3M

Launch pad: 132/2

Location: Plesetsk Cosmodrome, Russian Federation

...

Latest news about this satellite

There are no fresh news available about this satellite. Check back as we update our databases every day.


Newsletter sign-up

Weekly statistics, charts and insights to help you stay on top of the space industry.